| time (UTC) | temp F | wind direction | speed MPH | gust MPH | rain 1hr in | rain 24hr in | rain mn in | humidity % | barometer mb |
| 20260901133029 | 53 | 353 | 0.0 | 1.0 | 0.03 | 0.05 | 0.05 | 90 | 1022.1 |
| 20260901131510 | 54 | 4 | 0.0 | 1.0 | 0.03 | 0.05 | 0.05 | 90 | 1021.9 |
| 20260901130029 | 54 | 34 | 2.0 | 4.0 | 0.04 | 0.05 | 0.05 | 87 | 1021.9 |
| 20260901124526 | 54 | 59 | 1.0 | 2.0 | 0.02 | 0.03 | 0.03 | 85 | 1021.8 |
| 20260901123027 | 54 | 55 | 1.0 | 3.0 | 0.01 | 0.02 | 0.02 | 87 | 1021.9 |
| 20260901121536 | 54 | 240 | 0.0 | 0.0 | 0.01 | 0.02 | 0.02 | 88 | 1021.8 |
| 20260901120010 | 54 | 276 | 0.0 | 2.0 | 0.00 | 0.01 | 0.01 | 88 | 1021.8 |
| 20260901114515 | 54 | 332 | 0.0 | 0.0 | 0.00 | 0.01 | 0.01 | 87 | 1021.5 |
| 20260901113024 | 55 | 255 | 0.0 | 1.0 | 0.00 | 0.01 | 0.01 | 86 | 1021.6 |
| 20260901111530 | 55 | 235 | 0.0 | 1.0 | 0.00 | 0.01 | 0.01 | 85 | 1021.5 |
| 20260901110031 | 55 | 187 | 0.0 | 1.0 | 0.00 | 0.01 | 0.01 | 83 | 1021.1 |
| 20260901104525 | 56 | 135 | 0.0 | 3.0 | 0.00 | 0.01 | 0.01 | 81 | 1021.1 |
| 20260901103027 | 57 | 51 | 0.0 | 5.0 | 0.00 | 0.01 | 0.01 | 74 | 1021.2 |
| 20260901101531 | 57 | 41 | 5.0 | 5.0 | 0.01 | 0.01 | 0.01 | 75 | 1021.2 |
| 20260901100035 | 57 | 141 | 0.0 | 0.0 | 0.01 | 0.01 | 0.01 | 79 | 1021.4 |
| 20260901094538 | 57 | 41 | 0.0 | 4.0 | 0.01 | 0.01 | 0.01 | 77 | 1021.4 |
| 20260901093014 | 57 | 11 | 3.0 | 7.0 | 0.01 | 0.01 | 0.01 | 76 | 1021.4 |
| 20260901091522 | 58 | 345 | 1.0 | 2.0 | 0.00 | 0.00 | 0.00 | 72 | 1021.7 |
| 20260901090031 | 59 | 32 | 4.0 | 7.0 | 0.00 | 0.00 | 0.00 | 68 | 1021.7 |
| 20260901084535 | 59 | 18 | 4.0 | 8.0 | 0.00 | 0.00 | 0.00 | 66 | 1021.5 |
| 20260901083034 | 61 | 34 | 2.0 | 6.0 | 0.00 | 0.00 | 0.00 | 58 | 1021.9 |
| 20260901081517 | 63 | 100 | 0.0 | 1.0 | 0.00 | 0.00 | 0.00 | 53 | 1021.9 |
| 20260901080032 | 63 | 109 | 2.0 | 4.0 | 0.00 | 0.00 | 0.00 | 50 | 1021.7 |
| 20260901074529 | 63 | 191 | 0.0 | 2.0 | 0.00 | 0.00 | 0.00 | 49 | 1021.7 |
| 20260901073010 | 62 | 37 | 0.0 | 4.0 | 0.00 | 0.00 | 0.00 | 50 | 1021.6 |
| 20260901071524 | 62 | 91 | 0.0 | 4.0 | 0.00 | 0.00 | 0.00 | 51 | 1021.5 |
| 20260901070018 | 61 | 104 | 3.0 | 4.0 | 0.00 | 0.00 | 0.00 | 54 | 1021.6 |
| 20260901064510 | 62 | 165 | 1.0 | 3.0 | 0.00 | 0.00 | 0.00 | 52 | 1021.5 |
| 20260901063032 | 64 | 152 | 0.0 | 6.0 | 0.00 | 0.00 | 0.00 | 48 | 1021.3 |
| 20260901061509 | 61 | 139 | 0.0 | 1.0 | 0.00 | 0.00 | 0.00 | 51 | 1021.3 |
| 20260901060020 | 62 | 155 | 1.0 | 2.0 | 0.00 | 0.00 | 0.00 | 51 | 1021.3 |
| 20260901054534 | 63 | 198 | 0.0 | 0.0 | 0.00 | 0.00 | 0.00 | 49 | 1021.0 |
| 20260901053006 | 64 | 124 | 0.0 | 3.0 | 0.00 | 0.00 | 0.00 | 48 | 1021.1 |
| 20260901051508 | 66 | 87 | 1.0 | 2.0 | 0.00 | 0.00 | 0.00 | 42 | 1021.1 |
| 20260901050025 | 67 | 49 | 0.0 | 3.0 | 0.00 | 0.00 | 0.00 | 40 | 1021.3 |
| 20260901044546 | 67 | 39 | 1.0 | 3.0 | 0.00 | 0.00 | 0.00 | 40 | 1021.2 |
| 20260901043030 | 67 | 100 | 1.0 | 3.0 | 0.00 | 0.00 | 0.00 | 39 | 1021.3 |
| 20260901041526 | 67 | 98 | 0.0 | 3.0 | 0.00 | 0.00 | 0.00 | 39 | 1021.3 |
| 20260901040018 | 67 | 139 | 1.0 | 3.0 | 0.00 | 0.00 | 0.00 | 39 | 1021.3 |
| 20260901034530 | 67 | 230 | 2.0 | 6.0 | 0.00 | 0.00 | 0.00 | 38 | 1021.3 |
| 20260901033047 | 66 | 52 | 3.0 | 5.0 | 0.00 | 0.00 | 0.00 | 43 | 1021.1 |
| 20260901031534 | 67 | 237 | 0.0 | 2.0 | 0.00 | 0.00 | 0.00 | 45 | 1020.9 |
| 20260901030024 | 67 | 252 | 0.0 | 3.0 | 0.00 | 0.00 | 0.00 | 42 | 1020.6 |
| 20260901024521 | 67 | 112 | 1.0 | 2.0 | 0.00 | 0.00 | 0.00 | 42 | 1020.3 |
| 20260901023027 | 68 | 43 | 1.0 | 5.0 | 0.00 | 0.00 | 0.00 | 45 | 1020.3 |
| 20260901021541 | 69 | 148 | 0.0 | 2.0 | 0.00 | 0.00 | 0.00 | 43 | 1020.0 |
| 20260901020035 | 72 | 136 | 0.0 | 1.0 | 0.00 | 0.00 | 0.00 | 33 | 1019.5 |
| 20260901014522 | 73 | 140 | 0.0 | 3.0 | 0.00 | 0.00 | 0.00 | 29 | 1019.5 |
| 20260901013018 | 74 | 108 | 0.0 | 3.0 | 0.00 | 0.00 | 0.00 | 28 | 1019.5 |
| 20260901011520 | 76 | 108 | 0.0 | 3.0 | 0.00 | 0.00 | 0.00 | 27 | 1019.5 |
| 20260901010034 | 77 | 150 | 0.0 | 3.0 | 0.00 | 0.00 | 0.00 | 29 | 1019.7 |
| 20260901004540 | 77 | 169 | 1.0 | 3.0 | 0.00 | 0.00 | 0.00 | 27 | 1019.7 |
| 20260901003028 | 77 | 209 | 0.0 | 1.0 | 0.00 | 0.00 | 0.00 | 28 | 1019.8 |
| 20260901001518 | 77 | 203 | 0.0 | 3.0 | 0.00 | 0.00 | 0.00 | 29 | 1019.7 |
| 20260901000034 | 77 | 279 | 1.0 | 6.0 | 0.00 | 0.00 | 0.00 | 24 | 1019.7 |
| 20260831234531 | 78 | 245 | 2.0 | 4.0 | 0.00 | 0.00 | 0.00 | 23 | 1019.6 |
| 20260831233033 | 80 | 279 | 2.0 | 5.0 | 0.00 | 0.00 | 0.00 | 23 | 1019.7 |
| 20260831231524 | 80 | 224 | 1.0 | 5.0 | 0.00 | 0.00 | 0.00 | 22 | 1019.7 |
| 20260831230021 | 80 | 178 | 3.0 | 9.0 | 0.00 | 0.00 | 0.00 | 22 | 1019.9 |
| 20260831224526 | 78 | 191 | 1.0 | 4.0 | 0.00 | 0.00 | 0.00 | 24 | 1020.0 |
| 20260831223037 | 80 | 165 | 2.0 | 5.0 | 0.00 | 0.00 | 0.00 | 22 | 1020.1 |
| 20260831221539 | 78 | 165 | 3.0 | 6.0 | 0.00 | 0.00 | 0.00 | 22 | 1020.1 |
| 20260831220025 | 79 | 245 | 2.0 | 5.0 | 0.00 | 0.00 | 0.00 | 22 | 1020.5 |
| 20260831214508 | 77 | 111 | 3.0 | 5.0 | 0.00 | 0.00 | 0.00 | 23 | 1020.9 |
| 20260831213007 | 76 | 78 | 2.0 | 6.0 | 0.00 | 0.00 | 0.00 | 24 | 1020.8 |
| 20260831211510 | 76 | 281 | 2.0 | 8.0 | 0.00 | 0.00 | 0.00 | 25 | 1021.1 |
| 20260831210031 | 76 | 21 | 4.0 | 8.0 | 0.00 | 0.00 | 0.00 | 23 | 1021.4 |
| 20260831204530 | 75 | 26 | 3.0 | 7.0 | 0.00 | 0.00 | 0.00 | 24 | 1021.6 |
| 20260831203003 | 75 | 305 | 3.0 | 7.0 | 0.00 | 0.00 | 0.00 | 24 | 1021.7 |
| 20260831201517 | 76 | 255 | 3.0 | 7.0 | 0.00 | 0.00 | 0.00 | 24 | 1021.9 |
| 20260831200020 | 75 | 96 | 2.0 | 4.0 | 0.00 | 0.00 | 0.00 | 24 | 1022.1 |
| 20260831194522 | 74 | 284 | 1.0 | 7.0 | 0.00 | 0.00 | 0.00 | 25 | 1022.3 |
| 20260831193022 | 72 | 252 | 3.0 | 5.0 | 0.00 | 0.00 | 0.00 | 29 | 1022.6 |
| 20260831191533 | 71 | 288 | 3.0 | 5.0 | 0.00 | 0.00 | 0.00 | 31 | 1022.8 |
| 20260831190010 | 69 | 334 | 1.0 | 4.0 | 0.00 | 0.00 | 0.00 | 36 | 1023.0 |
| 20260831184514 | 66 | 274 | 2.0 | 6.0 | 0.00 | 0.00 | 0.00 | 39 | 1023.3 |
| 20260831183030 | 64 | 283 | 2.0 | 8.0 | 0.00 | 0.00 | 0.00 | 42 | 1023.6 |
| 20260831181531 | 62 | 285 | 3.0 | 6.0 | 0.00 | 0.00 | 0.00 | 42 | 1023.9 |
| 20260831180005 | 60 | 278 | 3.0 | 6.0 | 0.00 | 0.00 | 0.00 | 44 | 1024.1 |
| 20260831174520 | 58 | 274 | 1.0 | 5.0 | 0.00 | 0.00 | 0.00 | 47 | 1024.3 |
| 20260831173022 | 57 | 302 | 3.0 | 6.0 | 0.00 | 0.00 | 0.00 | 48 | 1024.4 |
| 20260831171534 | 56 | 282 | 1.0 | 5.0 | 0.00 | 0.00 | 0.00 | 50 | 1024.5 |
| 20260831170033 | 54 | 286 | 1.0 | 3.0 | 0.00 | 0.00 | 0.00 | 51 | 1024.6 |
| 20260831164521 | 53 | 152 | 1.0 | 2.0 | 0.00 | 0.00 | 0.00 | 54 | 1024.7 |
| 20260831163015 | 52 | 75 | 0.0 | 0.0 | 0.00 | 0.00 | 0.00 | 54 | 1024.8 |
| 20260831161534 | 49 | 249 | 0.0 | 0.0 | 0.00 | 0.00 | 0.00 | 56 | 1024.8 |
| 20260831160032 | 47 | 226 | 0.0 | 2.0 | 0.00 | 0.00 | 0.00 | 61 | 1025.0 |
| 20260831154555 | 45 | 287 | 0.0 | 3.0 | 0.00 | 0.00 | 0.00 | 65 | 1025.0 |
| 20260831153025 | 43 | 290 | 2.0 | 3.0 | 0.00 | 0.00 | 0.00 | 63 | 1025.0 |
| 20260831151529 | 41 | 36 | 0.0 | 0.0 | 0.00 | 0.00 | 0.00 | 69 | 1025.2 |
| 20260831150037 | 38 | 37 | 0.0 | 0.0 | 0.00 | 0.00 | 0.00 | 72 | 1025.2 |
| 20260831144527 | 36 | 30 | 0.0 | 0.0 | 0.00 | 0.00 | 0.00 | 80 | 1025.1 |
| 20260831143032 | 35 | 30 | 0.0 | 0.0 | 0.00 | 0.00 | 0.00 | 82 | 1025.2 |
| 20260831141516 | 35 | 20 | 0.0 | 1.0 | 0.00 | 0.01 | 0.00 | 83 | 1025.2 |
| 20260831140021 | 34 | 141 | 0.0 | 0.0 | 0.00 | 0.01 | 0.00 | 82 | 1025.1 |
| 20260831134527 | 35 | 160 | 0.0 | 0.0 | 0.00 | 0.01 | 0.00 | 82 | 1025.0 |